STARLINK-32480, 62039

Orbit data source: Space-Track

STARLINK-32480, 62039 is a payload satellite owned by SpaceX/Seattle (US) in LEO that was launched on Thu, 21 Nov 2024 UTC via an FALCON 9 launch vehicle from the Air Force Eastern Test Range (AFETR). Payload-class satellites include a variety of spacecraft equipped with specific instruments for various scientific and technological missions. These include communications satellites like Starlink; space stations such as the ISS; scientific satellites like the Hubble; Earth observation satellites from companies like Planet Labs, Umbra, and HawkEye 360; GPS; miniature CubeSats for education and research; and military/defense satellites.

Loading next visibility...
Identifier
62039, 2024-216H
Orbit
LEO
Last TLE update
14 hours ago
Origin
Manufacturer
SpaceX/Seattle
Mission
Operational Commercial Communications
Bus & Motor
STARLINK V2M, Unknown motor
Mass
730 kg wet, ~700 kg dry
Launch date (UTC)
2024-11-21 (8 months ago)
Launch vehicle
FALCON 9
Launch site
Air Force Eastern Test Range (AFETR)
Object type
Payload
Rocket body
Debris
Shape & HBR
Box + 2 Pan, 29 m
Radar Cross Section
36.964 m², Large (>1 m²)

Expand to show TLE details & history

TLE from 14 hours ago
0 STARLINK-32480
1 62039U 24216H   25189.73503123 -.00123556  00000-0 -45281-2 0  9990
2 62039  43.0027 194.2551 0000663 345.4456  14.6377 15.27779985 35401
Epoch: 2025-07-08T17:38Z
TLE epoch observation values (Epoch: 2025-07-08T17:38:26.698Z)
Latitude
0.00002°
Longitude
2.71812°
Altitude
481.786 km
Speed
7.627 km/s
True Right ascension
12h 57m 01s
True Declination
0° 00' 00"
Sunlit
Object was in daylight at epoch
Visualization orbit readout
Latitude
8.64502°
Longitude
8.71032°
Altitude
481.53 km
Speed
7.627 km/s
Apparent Right ascension
11h 10m 57s
Apparent Declination
-18° 42' 47"
Sunlit
Object is in daylight
Visualization observer readout
Local Sidereal Time
19:58:38
Azimuth
282.79° WNW
Elevation
-43.727°
Doppler factor
1
Orbital elements
Apogee altitude
484.85 km
Perigee altitude
483.94 km
Semi-major axis
6,862.532 km
Eccentricity
0.00007
Inclination
43.0027°
RAAN
194.2551°
Arg. of periapsis
345.4456°
True anomaly
Unknown
Mean anomaly
14.6377°
Eccentric anomaly
Unknown
Mean motion
3.81783 °/min
Orbital period
94.29 mins
BSTAR
-0.0045281
Loading maneuver chart data...
Loading SW <> Apogee altitude chart data...
Loading historical data...
Loading historical data...
Loading historical data...
Loading historical data...
Loading historical data...
Loading historical data...
Loading historical data...

STARLINK-32480 Visibility forecast

Observer location: undefined°, undefined°

Span
Click to sort rows by Start time (UTC) header in descending order
Start Az.
Max El. time (UTC)
Max El. Az.
Max El.
End time (UTC)
End Az.
6 mins2025-07-09 08:11:05.360Z288.698° WNW2025-07-09 08:14:05.360Z312.433° NW44.528°2025-07-09 08:17:05.360Z106.497° ESE
4 mins2025-07-09 09:51:05.360Z255.019° W2025-07-09 09:53:05.360Z209.772° SW22.501°2025-07-09 09:55:05.360Z168.115° S
4 mins2025-07-10 02:48:05.360Z180.974° SSW2025-07-10 02:50:05.360Z133.498° SE21.352°2025-07-10 02:52:05.360Z97.215° ESE
5 mins2025-07-10 04:26:05.360Z252.752° W2025-07-10 04:28:05.360Z266.037° W44.559°2025-07-10 04:31:05.360Z71.369° E
5 mins2025-07-10 06:05:05.360Z289.386° WNW2025-07-10 06:07:05.360Z337.82° N37.112°2025-07-10 06:10:05.360Z72.157° E
5 mins2025-07-10 07:44:05.360Z289.503° WNW2025-07-10 07:47:05.360Z94.829° ESE42.341°2025-07-10 07:49:05.360Z105.368° ESE
|